Location: Newark
(44.1667°N, 8.2500°E)
Time: 22:26:07
(UTC+00:00)

Vanguard 2 - Pass Details

Date: 15 December 2019
Orbit: 553 x 2938 km, 32.9° (Epoch: 21 January)

Event Time Altitude Azimuth Distance (km) Brightness Sun altitude
Exits shadow 05:16:56 15° 264° (W) 5,305 11.2 -16.8°
Maximum altitude 05:29:24 35° 213° (SSW) 3,947 11.0 -14.7°
Drops below altitude 10° 05:42:23 10° 155° (SSE) 4,974 12.3 -12.5°
Sets 05:46:17 0° 147° (SSE) 5,683 12.9 -11.8°
